Regional Weather Roundup
Issued by NWS Upton, NY

Current Version | Previous Version | Graphics & Text | Print | Product List | Glossary Off
Versions: 1 2 3 4 5 6 7 8 9 10 11 12 13 14 15 16 17 18 19 20 21 22 23 24 25 26 27 28 29 30 31 32 33 34 35 36 37 38 39 40 41 42 43 44 45 46 47 48 49 50

000
ASUS41 KOKX 022005
RWROKX

REGIONAL WEATHER ROUNDUP
NATIONAL WEATHER SERVICE NEW YORK NY
400 PM EDT TUE SEP 02 2014

NOTE: "FAIR" INDICATES FEW OR NO CLOUDS BELOW 12,000 FEET WITH NO
SIGNIFICANT WEATHER AND/OR OBSTRUCTIONS TO VISIBILITY.

NYZ071-072-176-178-NJZ106-104-022100-
NEW YORK CITY METRO AREA


CITY           SKY/WX    TMP DP  RH WIND       PRES   REMARKS
CENTRAL PARK   PTSUNNY   89  66  46 W8        29.85F HX  91
LAGUARDIA APRT PTSUNNY   92  67  43 SW15G23   29.81F HX  95
KENNEDY INTL   PTSUNNY   87  72  60 S15       29.85F HX  93
NEWARK/LIBERTY PTSUNNY   95  66  38 SW21      29.82F HX  98
BRNX BOT. GARD   N/A     88  70  55 SW6       29.88R HX  92
TETERBORO      SUNNY     93  66  40 W14       29.81F HX  96
$$

NYZ177-179-078>081-022100-
LONG ISLAND NEW YORK

CITY           SKY/WX    TMP DP  RH WIND       PRES   REMARKS
FARMINGDALE    SUNNY     87  73  62 SW16      29.84F HX  94
ISLIP          CLOUDY    86  72  62 SW13      29.82F HX  92
SHIRLEY        MOSUNNY   85  73  67 S12       29.85F HX  91
WESTHAMPTON    MOSUNNY   84  72  67 SW12G18   29.86F
MONTAUK POINT    N/A     81  73  76 S8        29.86F
$$

NYZ052-065-067-022100-
HUDSON VALLEY

CITY           SKY/WX    TMP DP  RH WIND       PRES   REMARKS
WHITE PLAINS   MOSUNNY   87  73  62 CALM      29.83F HX  94
NEWBURGH       MOSUNNY   90  70  51 W12G17    29.84F HX  95
MONTGOMERY     MOSUNNY   88  68  51 SW13G20   29.82F HX  91
POUGHKEEPSIE   SUNNY     91  68  46 SW8       29.79F HX  95
ALBANY         MOSUNNY   81  68  64 SE5       29.81F
$$

NJZ001-105-106-008-010-013-015-019>022-104-022100-
NEW JERSEY

CITY           SKY/WX    TMP DP  RH WIND       PRES   REMARKS
NEWARK/LIBERTY PTSUNNY   95  66  38 SW21      29.82F HX  98
TETERBORO      SUNNY     93  66  40 W14       29.81F HX  96
CALDWELL       MOSUNNY   91  67  44 VRB7      29.84F HX  94
MORRISTOWN     PTSUNNY   91  68  46 W13G23    29.84F HX  95
SOMERVILLE     NOT AVBL
LINDEN         FAIR      95  67  39 W12G18    29.85S HX  99
SUSSEX         MOSUNNY   90  69  50 SW9       29.84F HX  94
ANDOVER          N/A     86  69  56 SW8G16    29.86F HX  90
TRENTON        MOSUNNY   90  66  45 W12G18    29.85F HX  92
MILLVILLE      SUNNY     90  68  48 W8G18     29.89F HX  94
ATLANTIC CITY  MOSUNNY   91  70  49 SW13      29.88F HX  96
WRIGHTSTOWN    MOSUNNY   91  73  54 W12G21    29.84F HX  98
TOMS RIVER     MOSUNNY   91  70  49 SW12      29.86F HX  97
BELMAR         MOSUNNY   91  70  49 SW9G17    29.86F HX  97
$$

PAZ047>061-062-071-022100-
EASTERN PENNSYLVANIA

CITY           SKY/WX    TMP DP  RH WIND       PRES   REMARKS
PHILADELPHIA   PTSUNNY   90  69  50 W13       29.87F HX  94
ALLENTOWN      MOSUNNY   90  67  46 SW12      29.86F HX  93
SCRANTON       SUNNY     88  65  46 SW10G18   29.86F HX  90
$$

CTZ002-004>006-009-010-012-RIZ004-006-007-MAZ004-011-015-022100-
SOUTHERN NEW ENGLAND
 IN CT

CITY           SKY/WX    TMP DP  RH WIND       PRES   REMARKS
BRADLEY INTL   PTSUNNY   92  69  47 SW14      29.78F HX  97
HARTFORD       MOSUNNY   89  70  53 S10       29.78F HX  94
DANBURY        MOSUNNY   87  69  54 SW10      29.84F HX  91
WTRBRY/OXFORD  MOSUNNY   88  72  58 SW9       29.87F HX  94
BRIDGEPORT     MOSUNNY   85  70  60 S13       29.82F
MERIDEN        MOSUNNY   90  70  51 S14G22    29.81F HX  95
NEW HAVEN      MOSUNNY   87  73  62 S7        29.82F HX  94
CHESTER        FAIR      86  73  66 S12       29.85F HX  93
GROTON         MOSUNNY   77  72  84 S9        29.83F
WILLIMANTIC    PTSUNNY   88  71  57 S17G24    29.82F HX  94

 IN RI

CITY           SKY/WX    TMP DP  RH WIND       PRES   REMARKS
PROVIDENCE     PTSUNNY   87  71  58 S15G22    29.83F HX  93
BLOCK ISLAND   MOSUNNY   79  72  78 SW16      29.86F
WESTERLY       MOSUNNY   82  72  71 S12       29.85F

 IN MA

CITY           SKY/WX    TMP DP  RH WIND       PRES   REMARKS
BOSTON         PTSUNNY   89  71  55 SW14G22   29.78F HX  95
WORCESTER      PTSUNNY   81  71  71 SW6       29.86F
WESTFIELD      MOSUNNY   91  69  48 SW14      29.79F HX  96
PROVINCETOWN   MOSUNNY   81  72  74 SW14G20   29.82F
NANTUCKET      MOSUNNY   75  71  87 SW12      29.86F
$$

ANZ330-335-338-340-345-350-353-355-022100-
COASTAL MARINE OBSERVATIONS


STATION/POSITION TIME  SKY/WX   TEMP    WIND        PRES    VSBY  WAVE
                                AIR SEA DIR/SP/G                  HT/PER
                 (UTC)          (F)     (DEG/KT/KT) (MB)    (MI)  (FT/S)
NY HARB ENTRANCE NOT AVBL
4S FIRE IS       NOT AVBL
23SW MTP         2000                                 N/A           3/ 6
HUDSON CANYON    2000            77 76  230/ 10/ 12 1012.1          3/ 5
EXECUTION ROCKS  2000            85 77  210/ 12/ 14   N/A
WESTERN LI SOUND 2000            86     230/  4/  8   N/A           0
CENTRAL LI SOUND 1900            82 80  200/ 10/ 10   N/A           1
EASTERN LI SOUND 1900            75 71  170/  8/ 10   N/A
ROBBINS REEF     2000            89     210/ 14/ 19   N/A
$$


>>>>>>>>>>>>>>>>>>>>>>>>>>>> KEY <<<<<<<<<<<<<<<<<<<<<<<<<<<
>                                                          <
>     SKY/WX - SKY CONDITION/PRESENT WEATHER               <
>     TMP    - TEMPERATURE IN FAHRENHEIT                   <
>     DP     - DEWPOINT IN FAHRENHEIT                      <
>     RH     - RELATIVE HUMIDITY IN PERCENT                <
>     WIND   - DIRECTION AND SPEED IN MPH                  <
>     PRES   - MEAN SEA LEVEL PRESSURE IN INCHES OF HG     <
>     WCI    - WIND CHILL INDEX                            <
>     VSB    - VISIBILITY IN MILES                         <
>     HX     - HEAT INDEX                                  <
>     TC     - TEMPERATURE IN CELSIUS                      <
>     VRB    - VARIABLE WIND DIRECTION                     <
>                                                          <
>>>>>>>>>>>>>>>>>>>>>>>>>>>> KEY <<<<<<<<<<<<<<<<<<<<<<<<<<<




USA.gov is the U.S. government's official web portal to all federal, state and local government web resources and services.